Weather History for CYQZ - November, 2013

Change the Weather History Date:

Tuesday, November 12, 2013

  Actual Average Record
Temperature  
Mean Temperature 40 °F -  
Max Temperature 51 °F 36 °F 57 °F (2001)
Min Temperature 30 °F 25 °F 8 °F (2014)
Degree Days  
Heating Degree Days 24    
Moisture  
Dew Point 34 °F    
Average Humidity 76    
Maximum Humidity 93    
Minimum Humidity 54    
Precipitation  
Precipitation 0.00 in - - ()
Sea Level Pressure  
Sea Level Pressure 30.03 in    
Wind  
Wind Speed 6 mph ()    
Max Wind Speed 14 mph    
Max Gust Speed 20 mph    
Visibility 9.0 miles    
Events Rain    
Averages and records for this station are not official NWS values.
T = Trace of Precipitation, MM = Missing Value Source: Averaged Metar Reports

Daily Weather History Graph

Daily Weather History Graph

Search for Another Location

Airport or City:

Trip Planner

Search our weather history database for the weather conditions in past years. The results will help you decide how hot, cold, wet, or windy it might be!

Date:

Astronomy

Nov. 12, 2013 Rise Set
Actual Time 7:29 AM PST 4:18 PM PST
Civil Twilight 6:50 AM PST 4:56 PM PST
Nautical Twilight 6:08 AM PST 5:38 PM PST
Astronomical Twilight 5:28 AM PST 6:19 PM PST
Moon 2:10 PM PST (11/12) 1:45 AM PST (11/12)
Length of Visible Light 10h 05m
Length of Day
8h 49m
Waxing Gibbous, 77% of the Moon is Illuminated
Nov 12
Waxing Gibbous
Nov 17
Full
Nov 25
Last Quarter
Dec 2
New
Dec 9
First Quarter

Hourly Weather History & Observations

Time (PST) Temp. Windchill Dew Point Humidity Pressure Visibility Wind Dir Wind Speed Gust Speed Precip Events Conditions
12:00 AM 30.2 °F 26.7 °F 28.4 °F 93% 30.09 in 9.0 mi NNE 3.5 mph - N/A   Overcast
1:00 AM 32.0 °F - 30.2 °F 93% 30.07 in 9.0 mi Calm Calm - N/A   Overcast
2:00 AM 32.0 °F - 30.2 °F 93% 30.05 in 9.0 mi Variable 2.3 mph - N/A   Overcast
3:00 AM 35.6 °F 29.9 °F 32.0 °F 87% 30.01 in 9.0 mi SSE 6.9 mph - N/A   Overcast
4:00 AM 35.6 °F - 32.0 °F 87% 30.00 in 9.0 mi Calm Calm - N/A   Overcast
5:00 AM 39.2 °F 33.0 °F 33.8 °F 81% 29.97 in 9.0 mi SSE 9.2 mph - N/A   Overcast
6:00 AM 41.0 °F 34.7 °F 33.8 °F 76% 29.96 in 9.0 mi SSE 10.4 mph 17.3 mph N/A   Overcast
7:00 AM 35.6 °F - 33.8 °F 93% 29.98 in 9.0 mi Variable 2.3 mph - N/A   Overcast
8:00 AM 42.8 °F 36.6 °F 33.8 °F 70% 29.98 in 9.0 mi SSE 11.5 mph - N/A   Overcast
9:00 AM 42.8 °F 35.8 °F 33.8 °F 70% 29.99 in 9.0 mi SE 13.8 mph 19.6 mph N/A   Overcast
10:00 AM 42.8 °F 36.2 °F 33.8 °F 70% 30.01 in 9.0 mi SE 12.7 mph 18.4 mph N/A   Overcast
11:00 AM 44.6 °F 40.7 °F 35.6 °F 71% 30.04 in 9.0 mi SSE 6.9 mph - N/A   Overcast
11:07 AM 44.6 °F 41.4 °F 35.6 °F 71% 30.04 in 9.0 mi SSE 5.8 mph - N/A Rain Light Rain
11:21 AM 44.6 °F 38.8 °F 35.6 °F 71% 30.04 in 9.0 mi SSE 11.5 mph - N/A   Overcast
11:26 AM 44.6 °F 39.2 °F 35.6 °F 71% 30.04 in 9.0 mi SSE 10.4 mph - N/A Rain Light Rain
11:55 AM 44.6 °F 39.2 °F 35.6 °F 71% 30.04 in 9.0 mi ESE 10.4 mph - N/A   Overcast
12:00 PM 44.6 °F 39.2 °F 35.6 °F 71% 30.04 in 9.0 mi ESE 10.4 mph - N/A   Overcast
1:00 PM 46.4 °F 41.1 °F 35.6 °F 66% 30.04 in 9.0 mi SE 11.5 mph 18.4 mph N/A   Mostly Cloudy
2:00 PM 50.0 °F - 35.6 °F 58% 30.03 in 9.0 mi SSE 10.4 mph - N/A   Scattered Clouds
3:00 PM 51.8 °F - 35.6 °F 54% 30.03 in 9.0 mi SSE 11.5 mph 17.3 mph N/A   Overcast
4:00 PM 50.0 °F - 35.6 °F 58% 30.03 in 9.0 mi SSE 8.1 mph - N/A   Overcast
5:00 PM 41.0 °F - 35.6 °F 81% 30.04 in 9.0 mi Calm Calm - N/A   Overcast
6:00 PM 41.0 °F - 35.6 °F 81% 30.05 in 9.0 mi SSW 2.3 mph - N/A   Mostly Cloudy
7:00 PM 41.0 °F 37.1 °F 35.6 °F 81% 30.06 in 9.0 mi SSE 5.8 mph - N/A   Overcast
8:00 PM 41.0 °F - 35.6 °F 81% 30.06 in 9.0 mi Variable 2.3 mph - N/A   Overcast
9:00 PM 39.2 °F - 35.6 °F 87% 30.06 in 9.0 mi Variable 2.3 mph - N/A   Overcast
10:00 PM 44.6 °F 39.7 °F 35.6 °F 71% 30.05 in 9.0 mi SSE 9.2 mph - N/A   Overcast
11:00 PM 46.4 °F 41.9 °F 35.6 °F 66% 30.06 in 9.0 mi SE 9.2 mph - N/A   Overcast